Change the Weather History Date:

Sunday, October 13, 2013

  Actual Average Record
Temperature  
Mean Temperature 59 °F 64 °F  
Max Temperature 73 °F 78 °F 96 °F (1955)
Min Temperature 45 °F 50 °F 32 °F (1910)
Degree Days  
Heating Degree Days 6 3  
Month to date heating degree days 74 26  
Since 1 July heating degree days 100 32  
Cooling Degree Days 0 2  
Month to date cooling degree days 6 48  
Year to date cooling degree days 2105 2074  
Growing Degree Days 9 (Base 50)    
Moisture  
Dew Point 31 °F    
Average Humidity 42    
Maximum Humidity 65    
Minimum Humidity 19    
Precipitation  
Precipitation 0.00 in 0.02 in 0.44 in (1987)
Month to date precipitation 0.12 0.22  
Year to date precipitation 5.96 6.51  
Sea Level Pressure  
Sea Level Pressure 29.82 in    
Wind  
Wind Speed 13 mph (South)    
Max Wind Speed 29 mph    
Max Gust Speed 37 mph    
Visibility 10 miles    
Events      
T = Trace of Precipitation, MM = Missing Value Source: NWS Daily Summary

Daily Weather History Graph

Daily Weather History Graph

Search for Another Location

Airport or City:

Trip Planner

Search our weather history database for the weather conditions in past years. The results will help you decide how hot, cold, wet, or windy it might be!

Date:

Astronomy

Oct. 13, 2013 Rise Set
Actual Time 6:40 AM MST 6:02 PM MST
Civil Twilight 6:14 AM MST 6:28 PM MST
Nautical Twilight 5:45 AM MST 6:57 PM MST
Astronomical Twilight 5:16 AM MST 7:27 PM MST
Moon 2:46 PM MST (10/13) 1:06 AM MST (10/13)
Length of Visible Light 12h 13m
Length of Day
11h 22m
Waxing Gibbous, 70% of the Moon is Illuminated
Oct 13
Waxing Gibbous
Oct 18
Full
Oct 26
Last Quarter
Nov 3
New
Nov 9
First Quarter

Hourly Weather History & Observations

Time (MST) Temp. Windchill Dew Point Humidity Pressure Visibility Wind Dir Wind Speed Gust Speed Precip Events Conditions
12:51 AM 53.1 °F - 33.1 °F 47% 29.79 in 10.0 mi South 9.2 mph - N/A   Clear
1:51 AM 54.0 °F - 32.0 °F 43% 29.78 in 10.0 mi SE 11.5 mph - N/A   Clear
2:51 AM 48.9 °F - 33.1 °F 54% 29.78 in 10.0 mi South 3.5 mph - N/A   Clear
3:51 AM 45.0 °F 41.8 °F 33.1 °F 63% 29.78 in 10.0 mi SSE 5.8 mph - N/A   Clear
4:51 AM 51.1 °F - 32.0 °F 48% 29.77 in 10.0 mi ESE 12.7 mph - N/A   Clear
5:51 AM 46.9 °F - 32.0 °F 56% 29.80 in 10.0 mi SE 9.2 mph - N/A   Clear
6:51 AM 46.9 °F - 32.0 °F 56% 29.82 in 10.0 mi South 10.4 mph - N/A   Clear
7:51 AM 54.0 °F - 35.1 °F 49% 29.82 in 10.0 mi South 3.5 mph - N/A   Clear
8:51 AM 64.9 °F - 33.1 °F 31% 29.82 in 10.0 mi South 12.7 mph 18.4 mph N/A   Clear
9:51 AM 66.9 °F - 33.1 °F 28% 29.83 in 10.0 mi SSW 18.4 mph 26.5 mph N/A   Clear
10:51 AM 69.1 °F - 32.0 °F 25% 29.82 in 10.0 mi SSW 25.3 mph 34.5 mph N/A   Clear
11:51 AM 71.1 °F - 32.0 °F 24% 29.79 in 10.0 mi South 21.9 mph 36.8 mph N/A   Clear
12:51 PM 72.0 °F - 27.0 °F 19% 29.78 in 10.0 mi SSW 25.3 mph 36.8 mph N/A   Clear
1:51 PM 72.0 °F - 28.9 °F 20% 29.77 in 10.0 mi SSW 20.7 mph 29.9 mph N/A   Clear
2:51 PM 72.0 °F - 28.9 °F 20% 29.78 in 10.0 mi SSW 19.6 mph 29.9 mph N/A   Clear
3:51 PM 71.1 °F - 26.1 °F 19% 29.78 in 10.0 mi SSW 20.7 mph 26.5 mph N/A   Clear
4:51 PM 69.1 °F - 27.0 °F 21% 29.79 in 10.0 mi SSW 17.3 mph 21.9 mph N/A   Clear
5:51 PM 66.0 °F - 28.0 °F 24% 29.81 in 10.0 mi SSW 15.0 mph 23.0 mph N/A   Partly Cloudy
6:51 PM 62.1 °F - 28.0 °F 28% 29.85 in 10.0 mi SSW 8.1 mph - N/A   Partly Cloudy
7:51 PM 60.1 °F - 21.0 °F 22% 29.87 in 10.0 mi WNW 8.1 mph - N/A   Clear
8:51 PM 52.0 °F - 26.1 °F 37% 29.89 in 10.0 mi East 9.2 mph - N/A   Clear
9:51 PM 51.1 °F - 33.1 °F 50% 29.91 in 10.0 mi ESE 10.4 mph - N/A   Clear
10:51 PM 48.9 °F - 34.0 °F 56% 29.92 in 10.0 mi ESE 9.2 mph - N/A   Clear
11:51 PM 46.0 °F 41.9 °F 33.1 °F 61% 29.94 in 10.0 mi ESE 8.1 mph - N/A   Clear